Flag for Poland Weather past 2 weeks in Lidzbark Warmiński, Poland

Now
40 °F

Chilly.


Feels Like: 37 °F
Forecast: 38 / 47 °F
Wind: 3 mph from Northwest

Location: Ketrzyn

Current Time: Apr 18, 2015 at 10:32:36 PM

Latest Report: Apr 18, 2015 at 9:00 PM


Visibility: 19 mi

Pressure: 30.05 "Hg

Humidity: 75%

Dew point: 32 °F

Location of Lidzbark WarmińskiLocation

Historic Weather in Lidzbark Warmiński — Graph

°F

Lidzbark Warmiński temperature yesterday

Maximum temperature yesterday: 50 °F (at 1:00 PM)
Minimum temperature yesterday: 37 °F (at 10:00 PM)
Average temperature yesterday: 42 °F

Past Weeks' High & Low Weather Summary

 TemperatureHumidityPressure
High68 °F (Apr 11, 4:00 PM)99% (Apr 6, 9:00 AM)30.50 "Hg (Apr 6, 9:00 AM)
Low29 °F (Apr 9, 6:00 AM)25% (Apr 9, 4:00 PM)29.56 "Hg (Apr 16, 1:00 AM)
Average43 °F73%30.05 "Hg
* Reported Apr 3 9:00 PM — Apr 18 9:00 PM, Lidzbark Warmiński, Weather by CustomWeather, © 2015

Note: Actual official high and low records may vary slightly from our data, if they occured in-between our weather recording intervals... More about our weather records

Advertising

Lidzbark Warmiński weather history for previous 24 hours

 ConditionsComfort  
Time TempWeatherWind HumidityBarometerVisibility
9:00 PM
Sat, Apr 18
40 °FChilly.3 mph75%30.05 "Hg19 mi
8:00 PM42 °FQuite cool.3 mph70%30.04 "Hg25 mi
7:00 PM43 °FQuite cool.6 mph67%30.03 "Hg25 mi
6:00 PM45 °FCool.6 mph60%30.01 "Hg22 mi
5:00 PM44 °FRain showers. Cloudy.7 mph62%30.02 "Hg25 mi
4:00 PM44 °FQuite cool.5 mph69%30.01 "Hg22 mi
3:00 PM44 °FQuite cool.5 mph75%30.02 "Hg14 mi
2:00 PM36 °FLots of rain. Cloudy.3 mph87%30.04 "Hg1 mi
1:00 PM42 °FRain showers. Cloudy.5 mph74%30.03 "Hg19 mi
11:00 AM42 °FQuite cool.6 mph64%30.02 "Hg19 mi
10:00 AM40 °FLight rain. Cloudy.6 mph78%30.01 "Hg11 mi
9:00 AM39 °FChilly.5 mph85%30.00 "Hg22 mi
8:00 AM37 °FChilly.3 mph90%29.99 "Hg12 mi
7:00 AM36 °FChilly.2 mph92%29.98 "Hg12 mi
6:00 AM36 °FChilly.2 mph92%29.97 "Hg13 mi
4:00 AM36 °FChilly.3 mph91%29.94 "Hg13 mi
3:00 AM36 °FChilly.3 mph91%29.93 "Hg18 mi
2:00 AM35 °FChilly.3 mph93%29.92 "Hg18 mi
1:00 AM36 °FRain showers. Overcast.5 mph90%29.91 "Hg19 mi
12:00 AM36 °FChilly.3 mph89%29.90 "Hg25 mi
11:00 PM
Fri, Apr 17
38 °FRain showers. Overcast.5 mph82%29.90 "Hg16 mi
10:00 PM37 °FChilly.3 mph82%29.90 "Hg19 mi
Weather by CustomWeather, © 2015

See weather overviewHow to use our weather pages